カタログに戻る

STARLINK-35820

運用中通信VLEO
NORAD 66597·PAYLOAD·🇺🇸 United States

打ち上げ Nov 22, 2025 から Cape Canaveral Space Force Station

Loading…

次のパス (今後24時間)

TLE

最新Source: CelesTrak SupGP

元期: Sep 15, 2026, 04:10 UTC

1 66597C 25270K   26258.17409722 -.00060827  00000+0 -22047-2 0  2583
2 66597  43.0014  66.1690 0001481 271.3058 100.2909 15.27584911    10

AllMySatでSTARLINK-35820をリアルタイム追跡

Download on the App Store